Flag for Germany Weather past 2 weeks in Dreieich, Hesse, Germany

Now
62 °F

Scattered clouds.


Feels Like: 62 °F
Forecast: 42 / 52 °F
Wind: 2 mph from Southwest

Location: Frankfurt / M-Flughafen


UV Index: 3 (Moderate)

Visibility: 28 mi


Pressure: 30.04 "Hg

Humidity: 26%

Dew point: 26 °F

Location of DreieichLocation

Historic Weather in Dreieich

°F

Dreieich temperature yesterday

Maximum temperature yesterday: 57 °F (at 5:00 PM)
Minimum temperature yesterday: 33 °F (at 6:00 AM)
Average temperature yesterday: 47 °F

Past Weeks' High & Low Weather Summary

 TemperatureHumidityPressure
High72 °F (Apr 2, 6:00 PM)95% (Apr 6, 6:00 AM)30.44 "Hg (Apr 6, 6:00 AM)
Low33 °F (Apr 16, 6:00 AM)26% (Apr 17, 6:00 PM)29.64 "Hg (Apr 3, 7:00 PM)
Average55 °F61%30.05 "Hg
* Reported Apr 2 6:00 PM — Apr 17 6:00 PM, Dreieich, Weather by CustomWeather, © 2014

Note: Actual official high and low records may vary slightly from our data, if they occured in-between our weather recording intervals... More about our weather records

Advertising

Historic Weather Conditions — Data for Previous 24 hours

 ConditionsComfort  
Time TempWeatherWind HumidityBarometerVisibility
6:00 PM
Apr 17
62 °FScattered clouds.2 mph26%30.04 "Hg28 mi
5:00 PM62 °FPartly sunny.3 mph28%30.07 "Hg25 mi
4:00 PM62 °FOvercast.2 mph27%30.09 "Hg25 mi
3:00 PM60 °FOvercast.2 mph28%30.13 "Hg25 mi
2:00 PM59 °FPartly sunny.3 mph27%30.17 "Hg28 mi
1:00 PM57 °FScattered clouds.2 mph29%30.21 "Hg25 mi
12:00 PM55 °FPassing clouds.2 mph35%30.26 "Hg25 mi
11:00 AM53 °FScattered clouds.1 mph41%30.28 "Hg25 mi
10:00 AM48 °FPassing clouds.2 mph49%30.30 "Hg25 mi
9:00 AM44 °FPassing clouds.2 mph59%30.31 "Hg28 mi
8:00 AM40 °FPassing clouds.3 mph68%30.33 "Hg28 mi
7:00 AM36 °FPassing clouds.2 mph78%30.33 "Hg34 mi
6:00 AM36 °FPassing clouds.2 mph80%30.33 "Hg37 mi
4:00 AM36 °FPassing clouds.2 mph80%30.36 "Hg37 mi
3:00 AM38 °FPassing clouds.2 mph76%30.37 "Hg37 mi
2:00 AM38 °FPassing clouds.2 mph74%30.39 "Hg37 mi
1:00 AM40 °FPassing clouds.2 mph71%30.39 "Hg37 mi
12:00 AM42 °FPassing clouds.2 mph66%30.39 "Hg37 mi
11:00 PM
Apr 16
45 °FPassing clouds.2 mph60%30.38 "Hg43 mi
10:00 PM49 °FPassing clouds.2 mph50%30.38 "Hg43 mi
Weather by CustomWeather, © 2014

See weather overview